[[{"header":{"parameterUnit":"m.s-1","parameterCategory":1,"la1":30.2991,"la2":30.254,"lo1":-89.0895,"lo2":-89.0444,"dy":0.0017,"dx":0.0017,"nx":28,"ny":28,"refTime":"2025-09-08T21:00:00:Z","depth":0,"parameterNumber":2,"parameterNumberName":"U-component_of_WINDS"},"data":[0,0,0,0,0,0,0,0,0,0,0,0,0,0,0,0,0,0,0,0,0,0,0,0,0,0,0,0,0,0,0,0,0,0,0,0,0,0,0,0,0,0,0,0,0,0,0,0,0,0,0,0,0,0,0,0,0,0,-4.5315,-4.5315,0,-4.5307,-4.5307,-4.5307,-4.5124,-4.5119,-4.5114,-4.511,-4.5106,-4.511,-4.5114,0,0,0,0,0,0,0,0,0,0,0,0,0,-4.5176,-4.518,-4.5315,-4.5315,-4.5315,-4.5307,-4.5307,-4.5307,-4.5125,-4.5119,-4.5113,-4.5108,-4.5105,-4.511,-4.5115,0,0,0,0,0,0,0,0,0,0,0,0,0,-4.521,-4.5181,-4.5315,-4.5223,-4.5215,-4.5307,-4.5307,-4.5307,-4.5126,-4.5119,-4.5112,-4.5105,-4.5103,-4.5109,-4.5115,-4.5297,0,0,-4.5135,-4.5138,0,0,0,0,0,0,0,0,-4.5208,-4.5215,-4.5237,-4.523,-4.5221,-4.5209,-4.5256,-4.5304,-4.5128,-4.516,-4.511,-4.5102,-4.5146,-4.5149,-4.5163,-4.5296,-4.5296,-4.5136,-4.514,-4.5142,-4.5144,0,0,0,0,0,0,0,-4.5206,-4.5214,-4.5312,-4.5237,-4.5228,-4.5183,-4.518,-4.5264,-4.5193,-4.5157,-4.5143,-4.5144,-4.514,-4.5157,-4.5161,-4.5296,-4.5135,-4.5141,-4.5145,-4.5148,-4.5577,-4.5584,0,0,0,0,0,0,-4.5216,-4.5214,-4.5312,-4.5312,-4.5197,-4.5191,-4.5188,-4.522,-4.5192,-4.518,-4.5151,-4.5136,-4.515,-4.5154,-4.5161,-4.537,-4.5142,-4.5148,-4.5152,-4.5569,-4.5578,-4.5587,0,0,0,0,0,0,-4.5214,-4.5226,-4.5313,-4.5259,-4.5267,-4.5201,-4.5239,-4.5224,-4.524,-4.5187,-4.5174,-4.518,-4.5144,-4.5151,-4.5263,-4.5367,-4.5151,-4.5157,-4.556,-4.5572,-4.5583,-4.5791,0,0,0,0,0,0,-4.521,-4.5227,-4.5294,-4.5262,-4.527,-4.5416,-4.5245,-4.5229,-4.5251,-4.5232,-4.5211,-4.5201,-4.5139,-4.5255,-4.527,-4.5372,-4.5162,-4.5551,-4.5566,-4.5579,-4.5774,-4.5808,-4.5836,0,0,0,0,0,-4.5206,-4.5355,-4.5299,-4.5312,-4.5353,-4.5422,-4.5427,-4.5351,-4.526,-4.5328,-4.5293,-4.5202,-4.5353,-4.5268,-4.5283,-4.5389,-4.5544,-4.5561,-4.5578,-4.576,-4.5801,-4.5836,0,0,0,0,0,0,-4.5403,-4.5349,-4.5286,-4.5428,-4.5431,-4.5391,-4.5474,-4.5397,-4.5426,-4.5408,-4.5313,-4.5311,-4.5437,-4.5424,-4.533,-4.5562,-4.5432,-4.5453,-4.5566,-4.5604,-4.5635,-4.5635,-4.5167,0,0,0,0,0,-4.5462,-4.5521,-4.5471,-4.5602,-4.5606,-4.5541,-4.5568,-4.5509,-4.5508,-4.5509,-4.5483,-4.5487,-4.5535,-4.5569,-4.561,-4.5771,-4.5764,-4.5852,-4.5883,-4.5908,-4.5928,-4.6011,-4.6049,-4.5642,-4.5642,-4.5642,0,0,-4.5587,-4.5564,-4.5608,-4.5641,-4.5636,-4.57,-4.5543,-4.5618,-4.5664,-4.5521,-4.5624,-4.5606,-4.5604,-4.5741,-4.58,-4.5734,-4.6038,-4.593,-4.5951,-4.5956,-4.6032,-4.6071,-4.6105,-4.5654,-4.5652,-4.565,0,0,-4.5845,-4.5835,-4.5941,-4.5939,-4.5933,-4.5888,-4.5914,-4.5886,-4.5867,-4.5969,-4.5862,-4.5917,-4.6003,-4.6005,-4.6018,-4.6277,-4.6194,-4.6294,-4.6456,-4.6538,-4.657,-4.6598,-4.669,-4.6724,-4.6313,-4.6314,-4.6314,0,-4.6001,-4.6092,-4.6006,-4.6088,-4.6105,-4.5976,-4.6084,-4.6086,-4.6096,-4.6111,-4.6036,-4.6139,-4.613,-4.6265,-4.6328,-4.6343,-4.637,-4.6295,-4.6572,-4.6599,-4.6624,-4.6711,-4.6746,-4.6326,-4.6324,-4.6323,-4.6322,0,-4.6283,-4.6348,-4.6435,-4.6445,-4.6472,-4.6567,-4.6496,-4.6534,-4.6473,-4.6437,-4.6542,-4.6525,-4.6561,-4.6589,-4.6531,-4.6716,-4.6675,-4.6588,-4.6456,-4.6676,-4.6756,-4.6789,-4.6343,-4.6339,-4.6335,-4.6332,0,0,-4.6666,-4.6626,-4.6659,-4.6661,-4.6645,-4.6694,-4.6783,-4.6815,-4.685,-4.686,-4.6932,-4.7007,-4.6926,-4.694,-4.6881,-4.6954,-4.716,-4.6857,-4.6856,-4.6914,-4.7362,-4.7428,-4.7467,-4.7104,-4.711,-4.7115,-4.7362,0,-4.6915,-4.7062,-4.6988,-4.7145,-4.7203,-4.7082,-4.7159,-4.7158,-4.7126,-4.7172,-4.7137,-4.7191,-4.708,-4.7088,-4.7154,-4.7121,-4.7248,-4.7102,-4.7171,-4.7175,-4.7175,-4.7509,-4.7578,-4.7812,-4.7393,-4.7398,-4.7402,0,-4.7225,-4.7247,-4.741,-4.7381,-4.7403,-4.7473,-4.7497,-4.7542,-4.7538,-4.751,-4.7526,-4.745,-4.7536,-4.7405,-4.7522,-4.7424,-4.7448,-4.7436,-4.7443,-4.7446,-4.7301,-4.7521,-4.7885,-4.792,-4.745,-4.7447,-4.7443,0,-4.7487,-4.7557,-4.7663,-4.7669,-4.7638,-4.769,-4.7681,-4.7669,-4.7694,-4.7715,-4.773,-4.7762,-4.778,-4.7807,-4.7741,-4.7652,-4.7867,-4.7731,-4.7846,-4.7849,-4.7897,-4.7895,-4.827,-4.7914,-4.7914,-4.7913,-4.7912,0,-4.7773,-4.7877,-4.7779,-4.7845,-4.7958,-4.7872,-4.7986,-4.7963,-4.7955,-4.8014,-4.7911,-4.7969,-4.788,-4.7929,-4.7879,-4.7983,-4.7993,-4.7972,-4.7958,-4.7981,-4.7984,-4.7995,-4.7977,-4.7922,-4.792,-4.7918,-4.7917,0,-4.8084,-4.8023,-4.813,-4.8092,-4.8085,-4.817,-4.8137,-4.8197,-4.8157,-4.8234,-4.8247,-4.8186,-4.8239,-4.8176,-4.8225,-4.8191,-4.8332,-4.8293,-4.8333,-4.8321,-4.844,-4.8429,-4.8835,-4.8884,-4.8498,-4.8502,-4.8505,0,-4.827,-4.8347,-4.8316,-4.8348,-4.8343,-4.8396,-4.8419,-4.8337,-4.8366,-4.8367,-4.8427,-4.8471,-4.8501,-4.8592,-4.8553,-4.8589,-4.855,-4.869,-4.8555,-4.8576,-4.8551,-4.8547,-4.8554,-4.8718,-4.8722,-4.8726,-4.8729,0,-4.8606,-4.8572,-4.8609,-4.8636,-4.8666,-4.8684,-4.8694,-4.8726,-4.8641,-4.8679,-4.8731,-4.8754,-4.8802,-4.8848,-4.8873,-4.8863,-4.8783,-4.8772,-4.88,-4.8825,-4.8844,-4.8834,-4.8407,-4.8763,-4.8759,-4.8757,-4.8755,-4.8754,-4.8859,-4.8922,-4.8909,-4.8954,-4.8953,-4.8964,-4.9017,-4.8984,-4.9025,-4.9057,-4.9007,-4.9072,-4.9066,-4.9091,-4.9091,-4.9141,-4.9081,-4.9123,-4.9133,-4.9145,-4.9162,-4.8837,-4.9146,-4.9145,-4.9144,-4.9143,-4.9142,0,-4.9189,-4.9175,-4.9217,-4.9233,-4.9269,-4.9188,-4.9195,-4.923,-4.9288,-4.9288,-4.932,-4.938,-4.9423,-4.9387,-4.9423,-4.947,-4.9434,-4.9482,-4.9477,-4.9477,-4.9214,-4.9185,-4.9511,-4.9511,-4.951,-4.951,-4.951,-4.951,-4.9365,-4.9465,-4.943,-4.9529,-4.9514,-4.9575,-4.9586,-4.9596,-4.9596,-4.9666,-4.9701,-4.9677,-4.9663,-4.9696,-4.9733,-4.9721,-4.9739,-4.98,-4.9776,-4.9531,-4.9495,-4.9461,-4.9433,-4.9805,-4.9806,-5.0034,-5.0036,-5.0038]},{"header":{"parameterUnit":"m.s-1","parameterCategory":1,"la1":30.2991,"la2":30.254,"lo1":-89.0895,"lo2":-89.0444,"dy":0.0017,"dx":0.0017,"nx":28,"ny":28,"refTime":"2025-09-08T21:00:00:Z","depth":0,"parameterNumber":3,"parameterNumberName":"V-component_of_WINDS"},"data":[0,0,0,0,0,0,0,0,0,0,0,0,0,0,0,0,0,0,0,0,0,0,0,0,0,0,0,0,0,0,0,0,0,0,0,0,0,0,0,0,0,0,0,0,0,0,0,0,0,0,0,0,0,0,0,0,0,0,-2.2154,-2.2155,0,-2.2191,-2.2191,-2.2192,-2.2208,-2.2208,-2.2208,-2.2208,-2.2241,-2.2242,-2.2243,0,0,0,0,0,0,0,0,0,0,0,0,0,-2.2094,-2.2095,-2.2154,-2.2155,-2.2155,-2.2191,-2.2191,-2.2192,-2.2208,-2.2208,-2.2208,-2.2208,-2.2241,-2.2242,-2.2243,0,0,0,0,0,0,0,0,0,0,0,0,0,-2.2124,-2.2096,-2.2154,-2.2168,-2.2169,-2.2191,-2.2191,-2.2192,-2.2208,-2.2208,-2.2208,-2.2208,-2.224,-2.2242,-2.2243,-2.2252,0,0,-2.2247,-2.2248,0,0,0,0,0,0,0,0,-2.2123,-2.2126,-2.2165,-2.2167,-2.2169,-2.2195,-2.2182,-2.2212,-2.2208,-2.2193,-2.2208,-2.2208,-2.2226,-2.2228,-2.2235,-2.2254,-2.2255,-2.2247,-2.2248,-2.2249,-2.2249,0,0,0,0,0,0,0,-2.212,-2.2125,-2.2169,-2.2166,-2.2168,-2.217,-2.2175,-2.2188,-2.2209,-2.2194,-2.2196,-2.22,-2.2226,-2.2234,-2.2236,-2.2256,-2.2247,-2.2249,-2.2249,-2.225,-2.2284,-2.2284,0,0,0,0,0,0,-2.2117,-2.2123,-2.2167,-2.217,-2.2145,-2.2172,-2.2176,-2.2186,-2.2209,-2.2212,-2.22,-2.2201,-2.2231,-2.2234,-2.2237,-2.2249,-2.2249,-2.225,-2.2251,-2.2283,-2.2284,-2.2284,0,0,0,0,0,0,-2.2115,-2.2121,-2.2166,-2.2147,-2.2153,-2.2173,-2.2184,-2.2187,-2.2194,-2.2213,-2.2217,-2.2204,-2.2231,-2.2235,-2.2249,-2.2251,-2.2251,-2.2252,-2.2283,-2.2284,-2.2284,-2.2274,0,0,0,0,0,0,-2.2114,-2.212,-2.2125,-2.2147,-2.2154,-2.2178,-2.2184,-2.2188,-2.2197,-2.2198,-2.2218,-2.2221,-2.2232,-2.2246,-2.225,-2.2252,-2.2253,-2.2283,-2.2283,-2.2284,-2.2274,-2.2273,-2.2273,0,0,0,0,0,-2.2111,-2.212,-2.2125,-2.213,-2.2161,-2.2178,-2.2182,-2.2196,-2.2197,-2.2202,-2.2214,-2.222,-2.225,-2.2248,-2.2252,-2.2255,-2.2283,-2.2283,-2.2284,-2.2274,-2.2273,-2.2273,0,0,0,0,0,0,-2.2097,-2.2123,-2.2129,-2.2145,-2.216,-2.2181,-2.2187,-2.2195,-2.2208,-2.2208,-2.2223,-2.2227,-2.2239,-2.2248,-2.2246,-2.2264,-2.2267,-2.2268,-2.2258,-2.2258,-2.2257,-2.2255,-2.2254,0,0,0,0,0,-2.2095,-2.2109,-2.2131,-2.2143,-2.215,-2.2167,-2.2176,-2.2185,-2.22,-2.2205,-2.2218,-2.2231,-2.2243,-2.2251,-2.2263,-2.2275,-2.2279,-2.2279,-2.2278,-2.2278,-2.2279,-2.2285,-2.2285,-2.2284,-2.2284,-2.2284,0,0,-2.2093,-2.2109,-2.2116,-2.214,-2.2153,-2.2165,-2.2172,-2.2185,-2.2194,-2.2207,-2.2221,-2.223,-2.2246,-2.2258,-2.2265,-2.2266,-2.228,-2.2278,-2.2278,-2.2279,-2.2285,-2.2285,-2.2285,-2.2284,-2.2284,-2.2284,0,0,-2.2094,-2.2108,-2.212,-2.2132,-2.215,-2.2162,-2.2164,-2.2185,-2.2192,-2.2207,-2.2216,-2.2226,-2.2247,-2.2258,-2.2265,-2.227,-2.2276,-2.2273,-2.2271,-2.2277,-2.2277,-2.2277,-2.2278,-2.2278,-2.2274,-2.2274,-2.2274,0,-2.2088,-2.2109,-2.2124,-2.2137,-2.2146,-2.2159,-2.217,-2.2181,-2.2202,-2.2208,-2.2209,-2.2236,-2.2247,-2.2262,-2.2263,-2.2269,-2.2272,-2.2271,-2.2276,-2.2276,-2.2276,-2.2278,-2.2278,-2.2273,-2.2273,-2.2273,-2.2273,0,-2.21,-2.2114,-2.2121,-2.2142,-2.2153,-2.2164,-2.218,-2.2188,-2.2196,-2.2206,-2.222,-2.2234,-2.2249,-2.2253,-2.2261,-2.2269,-2.2269,-2.2273,-2.2276,-2.2276,-2.2277,-2.2278,-2.2273,-2.2273,-2.2273,-2.2273,0,0,-2.2094,-2.2123,-2.2126,-2.2135,-2.2157,-2.2167,-2.2178,-2.2194,-2.2201,-2.2214,-2.2224,-2.2241,-2.2244,-2.2253,-2.2262,-2.2267,-2.2269,-2.227,-2.2271,-2.2269,-2.2278,-2.2275,-2.2276,-2.2273,-2.2273,-2.2273,-2.2277,0,-2.2098,-2.2121,-2.2135,-2.2151,-2.2164,-2.2176,-2.2185,-2.2199,-2.2209,-2.2219,-2.223,-2.2242,-2.2246,-2.2251,-2.2257,-2.2268,-2.2271,-2.2267,-2.2281,-2.2281,-2.2277,-2.2277,-2.2274,-2.2276,-2.2278,-2.2278,-2.2278,0,-2.2107,-2.2121,-2.214,-2.2159,-2.2165,-2.2173,-2.2189,-2.2199,-2.2214,-2.2221,-2.223,-2.2239,-2.225,-2.2252,-2.2266,-2.2264,-2.227,-2.2276,-2.2276,-2.2278,-2.228,-2.2278,-2.2278,-2.2278,-2.2279,-2.2279,-2.2279,0,-2.21,-2.2124,-2.2138,-2.2146,-2.2169,-2.2175,-2.2184,-2.2199,-2.2207,-2.222,-2.2225,-2.2239,-2.2246,-2.2255,-2.2267,-2.2267,-2.228,-2.2283,-2.2285,-2.2285,-2.2287,-2.2287,-2.2288,-2.2291,-2.2291,-2.2291,-2.2291,0,-2.2104,-2.2114,-2.2136,-2.2144,-2.2156,-2.217,-2.2181,-2.2191,-2.2204,-2.2214,-2.2224,-2.2233,-2.2247,-2.2257,-2.2266,-2.2276,-2.2279,-2.2284,-2.2286,-2.2283,-2.2283,-2.2288,-2.2288,-2.2291,-2.2291,-2.2291,-2.2291,0,-2.2098,-2.2113,-2.2129,-2.215,-2.2155,-2.2163,-2.218,-2.2187,-2.2198,-2.221,-2.2213,-2.2229,-2.2241,-2.2253,-2.2269,-2.2275,-2.2285,-2.2288,-2.2281,-2.2282,-2.2283,-2.2283,-2.2287,-2.2288,-2.2291,-2.2291,-2.2291,0,-2.21,-2.2109,-2.213,-2.2138,-2.2148,-2.216,-2.2169,-2.2183,-2.2192,-2.2208,-2.2214,-2.2227,-2.2238,-2.2257,-2.2269,-2.2281,-2.2284,-2.2285,-2.2286,-2.2282,-2.2284,-2.2283,-2.2284,-2.2284,-2.2284,-2.2284,-2.2284,0,-2.2101,-2.2108,-2.2121,-2.2136,-2.2147,-2.216,-2.2172,-2.2178,-2.2194,-2.2203,-2.2216,-2.2225,-2.2241,-2.2254,-2.2267,-2.2275,-2.2282,-2.2283,-2.2285,-2.2282,-2.2277,-2.2279,-2.2279,-2.2283,-2.2283,-2.2283,-2.2283,-2.2283,-2.2099,-2.2107,-2.2123,-2.2137,-2.2149,-2.216,-2.2169,-2.218,-2.2192,-2.2208,-2.2215,-2.2228,-2.2241,-2.226,-2.2267,-2.2277,-2.2279,-2.228,-2.2281,-2.2281,-2.228,-2.2275,-2.2279,-2.2279,-2.2279,-2.2279,-2.2279,0,-2.21,-2.2111,-2.2124,-2.2142,-2.2153,-2.2159,-2.2174,-2.2182,-2.2193,-2.2206,-2.2217,-2.2231,-2.2243,-2.2256,-2.2269,-2.2273,-2.2277,-2.2276,-2.2276,-2.2278,-2.2278,-2.2276,-2.2273,-2.2273,-2.2273,-2.2273,-2.2273,-2.2273,-2.2102,-2.2116,-2.2125,-2.2143,-2.2154,-2.2168,-2.2176,-2.2186,-2.2196,-2.2212,-2.2222,-2.2231,-2.2243,-2.2256,-2.2267,-2.2271,-2.2274,-2.2273,-2.2277,-2.2277,-2.2278,-2.2278,-2.2276,-2.2274,-2.2274,-2.2276,-2.2276,-2.2276]}]]